[[{"header":{"parameterUnit":"m.s-1","parameterCategory":1,"la1":30.2991,"la2":30.254,"lo1":-89.0895,"lo2":-89.0444,"dy":0.0017,"dx":0.0017,"nx":28,"ny":28,"refTime":"2024-05-26T09:00:00:Z","depth":0,"parameterNumber":2,"parameterNumberName":"U-component_of_WINDS"},"data":[0,0,0,0,0,0,0,0,0,0,0,0,0,0,0,0,0,0,0,0,0,0,0,0,0,0,0,0,0,0,0,0,0,0,0,0,0,0,0,0,0,0,0,0,0,0,0,0,0,0,0,0,0,0,0,0,0,0,2.8325,2.8326,0,2.8378,2.8379,2.8379,2.8344,2.8342,2.8341,2.8339,2.8392,2.8395,2.8398,0,0,0,0,0,0,0,0,0,0,0,0,0,2.819,2.8193,2.8325,2.8326,2.8326,2.8378,2.8379,2.8379,2.8344,2.8342,2.834,2.8339,2.8391,2.8395,2.8398,0,0,0,0,0,0,0,0,0,0,0,0,0,2.8246,2.8194,2.8325,2.8315,2.8315,2.8378,2.8379,2.838,2.8345,2.8342,2.834,2.8338,2.839,2.8395,2.8399,2.8474,0,0,2.8412,2.8414,0,0,0,0,0,0,0,0,2.8243,2.8251,2.8316,2.8316,2.8316,2.8352,2.8351,2.8411,2.8345,2.8333,2.8339,2.8336,2.8381,2.8386,2.8401,2.8477,2.8479,2.8413,2.8415,2.8417,2.8418,0,0,0,0,0,0,0,2.8239,2.8249,2.8346,2.8317,2.8317,2.8307,2.8312,2.8362,2.837,2.8334,2.8332,2.8339,2.838,2.8397,2.8402,2.848,2.8413,2.8416,2.8419,2.8421,2.8617,2.8619,0,0,0,0,0,0,2.8237,2.8246,2.8344,2.8348,2.8273,2.8311,2.8317,2.8343,2.8369,2.8371,2.8341,2.8337,2.8391,2.8397,2.8404,2.8491,2.8417,2.8421,2.8424,2.8614,2.8617,2.862,0,0,0,0,0,0,2.8234,2.8246,2.8342,2.8296,2.8308,2.8316,2.8345,2.8345,2.8362,2.8374,2.8375,2.8356,2.8389,2.8398,2.8456,2.8493,2.8423,2.8427,2.8611,2.8615,2.8619,2.8669,0,0,0,0,0,0,2.823,2.8245,2.8275,2.8297,2.831,2.8395,2.8347,2.8348,2.8369,2.8365,2.8389,2.8391,2.8388,2.845,2.8461,2.8498,2.8431,2.8608,2.8613,2.8617,2.8664,2.8674,2.8683,0,0,0,0,0,2.8226,2.8287,2.8276,2.8288,2.8348,2.8397,2.8405,2.84,2.8373,2.8402,2.8409,2.839,2.8487,2.8456,2.8468,2.8507,2.8605,2.8611,2.8617,2.866,2.8672,2.8682,0,0,0,0,0,0,2.8269,2.829,2.8278,2.8349,2.8372,2.8391,2.8428,2.8414,2.8444,2.8438,2.8431,2.8437,2.8498,2.8508,2.8473,2.858,2.8542,2.855,2.857,2.8582,2.8591,2.8587,2.8434,0,0,0,0,0,2.8287,2.8326,2.8342,2.8403,2.8415,2.8419,2.8441,2.8435,2.8458,2.8467,2.8479,2.8502,2.8537,2.856,2.8594,2.8666,2.8669,2.8698,2.8707,2.8715,2.8722,2.8758,2.877,2.8639,2.8639,2.8639,0,0,2.8324,2.834,2.8366,2.8412,2.8429,2.8468,2.8428,2.8472,2.85,2.8474,2.8529,2.8539,2.8563,2.8628,2.8657,2.8639,2.8759,2.8722,2.8728,2.8731,2.8765,2.8777,2.8788,2.8643,2.8642,2.8642,0,0,2.8411,2.8429,2.848,2.8497,2.8523,2.8525,2.8538,2.8559,2.8564,2.862,2.86,2.8634,2.8696,2.8713,2.873,2.8821,2.8804,2.8832,2.888,2.8916,2.8926,2.8935,2.8966,2.8977,2.884,2.884,2.884,0,2.8454,2.8514,2.8508,2.8553,2.8573,2.8551,2.8601,2.8618,2.8653,2.8667,2.8646,2.8721,2.8736,2.8803,2.8826,2.8841,2.8853,2.8829,2.8925,2.8934,2.8943,2.8971,2.8983,2.8843,2.8842,2.8842,2.8842,0,2.8563,2.8605,2.8643,2.8677,2.8701,2.8749,2.8749,2.8775,2.8767,2.8771,2.8826,2.8843,2.8879,2.8894,2.8888,2.896,2.8947,2.8926,2.8888,2.8958,2.8985,2.8996,2.8847,2.8846,2.8845,2.8844,0,0,2.868,2.8709,2.8723,2.8737,2.8763,2.8794,2.884,2.8874,2.8895,2.892,2.8956,2.9008,2.8988,2.9007,2.9001,2.9033,2.9101,2.9007,2.9007,2.9022,2.9179,2.9194,2.9207,2.909,2.9092,2.9094,2.9177,0,2.8767,2.8847,2.8843,2.8917,2.8954,2.8932,2.8972,2.8991,2.8996,2.9027,2.9032,2.9068,2.9039,2.905,2.908,2.9087,2.9132,2.9081,2.9123,2.9124,2.9116,2.9222,2.9238,2.9315,2.9187,2.9189,2.9191,0,2.888,2.8907,2.8986,2.9004,2.9019,2.9055,2.9084,2.9115,2.9135,2.9136,2.9157,2.9146,2.919,2.9152,2.9212,2.9176,2.9193,2.9199,2.9202,2.9204,2.9161,2.9225,2.934,2.9351,2.9208,2.9206,2.9205,0,2.8954,2.9011,2.9064,2.9077,2.91,2.9125,2.9136,2.9155,2.9175,2.9201,2.9213,2.9244,2.9261,2.9284,2.9281,2.9254,2.9341,2.9303,2.9342,2.9342,2.936,2.9359,2.9477,2.9374,2.9374,2.9374,2.9374,0,2.905,2.9098,2.9097,2.913,2.9183,2.9177,2.9228,2.9236,2.9252,2.9285,2.9269,2.93,2.9294,2.9325,2.9323,2.9371,2.9379,2.938,2.9379,2.9381,2.938,2.939,2.9384,2.9377,2.9376,2.9376,2.9375,0,2.9142,2.9143,2.92,2.9217,2.9222,2.9259,2.9273,2.9303,2.9306,2.9348,2.9357,2.9362,2.9396,2.9396,2.9436,2.9434,2.9493,2.9486,2.9486,2.9484,2.9522,2.9517,2.965,2.9666,2.9554,2.9555,2.9556,0,2.9202,2.9239,2.9259,2.928,2.9292,2.9326,2.9346,2.9341,2.9362,2.9387,2.9414,2.9447,2.9473,2.953,2.9536,2.9566,2.9558,2.9602,2.9563,2.9563,2.9556,2.9553,2.9556,2.961,2.9611,2.9612,2.9613,0,2.9309,2.9307,2.9337,2.9367,2.9392,2.9415,2.9436,2.9454,2.9451,2.9475,2.9511,2.9531,2.9571,2.9603,2.9632,2.9641,2.9626,2.9626,2.9636,2.9637,2.9635,2.9634,2.9505,2.9622,2.9621,2.9621,2.962,2.962,2.9385,2.9416,2.9434,2.9467,2.9483,2.9502,2.9531,2.9537,2.9566,2.9598,2.9593,2.9632,2.965,2.9686,2.9698,2.9728,2.9712,2.9727,2.9731,2.9734,2.9737,2.9631,2.9733,2.9733,2.9733,2.9732,2.9732,0,2.9489,2.95,2.953,2.956,2.9586,2.957,2.9592,2.9614,2.9648,2.9666,2.9692,2.9731,2.9762,2.9771,2.98,2.9822,2.9815,2.9829,2.9827,2.9829,2.9751,2.9738,2.9834,2.9834,2.9834,2.9834,2.9834,2.9834,2.9546,2.9596,2.9596,2.9652,2.9662,2.97,2.9714,2.9731,2.9745,2.979,2.9816,2.9821,2.9834,2.9864,2.9891,2.9893,2.9903,2.992,2.9918,2.9845,2.9835,2.9825,2.9813,2.9923,2.9923,2.9993,2.9994,2.9995]},{"header":{"parameterUnit":"m.s-1","parameterCategory":1,"la1":30.2991,"la2":30.254,"lo1":-89.0895,"lo2":-89.0444,"dy":0.0017,"dx":0.0017,"nx":28,"ny":28,"refTime":"2024-05-26T09:00:00:Z","depth":0,"parameterNumber":3,"parameterNumberName":"V-component_of_WINDS"},"data":[0,0,0,0,0,0,0,0,0,0,0,0,0,0,0,0,0,0,0,0,0,0,0,0,0,0,0,0,0,0,0,0,0,0,0,0,0,0,0,0,0,0,0,0,0,0,0,0,0,0,0,0,0,0,0,0,0,0,5.3396,5.3397,0,5.3475,5.3476,5.3477,5.3434,5.3431,5.3429,5.3427,5.3505,5.3509,5.3513,0,0,0,0,0,0,0,0,0,0,0,0,0,5.3203,5.3206,5.3396,5.3397,5.3398,5.3475,5.3476,5.3477,5.3434,5.3431,5.3429,5.3426,5.3503,5.3508,5.3513,0,0,0,0,0,0,0,0,0,0,0,0,0,5.3284,5.3208,5.3396,5.3386,5.3386,5.3475,5.3476,5.3477,5.3435,5.3431,5.3428,5.3425,5.3502,5.3508,5.3514,5.3616,0,0,5.3532,5.3535,0,0,0,0,0,0,0,0,5.328,5.3292,5.3386,5.3387,5.3387,5.3441,5.3436,5.3524,5.3435,5.3416,5.3427,5.3423,5.3486,5.3493,5.3515,5.3619,5.3623,5.3533,5.3537,5.3539,5.3541,0,0,0,0,0,0,0,5.3274,5.3288,5.3427,5.3388,5.3388,5.3376,5.3384,5.3452,5.3468,5.3417,5.3414,5.3425,5.3485,5.3509,5.3516,5.3624,5.3533,5.3538,5.3542,5.3544,5.3813,5.3817,0,0,0,0,0,0,5.327,5.3284,5.3424,5.3429,5.3324,5.3382,5.3391,5.3427,5.3467,5.347,5.3427,5.3422,5.35,5.3509,5.3519,5.364,5.3539,5.3545,5.3548,5.381,5.3814,5.3818,0,0,0,0,0,0,5.3266,5.3283,5.3421,5.3356,5.3372,5.3389,5.3429,5.343,5.3454,5.3475,5.3477,5.3449,5.3498,5.351,5.3592,5.3642,5.3548,5.3553,5.3806,5.3811,5.3816,5.3883,0,0,0,0,0,0,5.326,5.3282,5.3322,5.3357,5.3376,5.3495,5.3432,5.3434,5.3465,5.3459,5.3496,5.3498,5.3497,5.3583,5.3598,5.3649,5.3558,5.3801,5.3808,5.3814,5.3877,5.389,5.3902,0,0,0,0,0,5.3254,5.3338,5.3324,5.3342,5.3427,5.3498,5.3508,5.3506,5.3469,5.3509,5.3522,5.3497,5.3634,5.3592,5.3608,5.3662,5.3798,5.3806,5.3814,5.3871,5.3888,5.3902,0,0,0,0,0,0,5.3308,5.3342,5.3328,5.3426,5.3459,5.349,5.3541,5.3523,5.3567,5.356,5.3553,5.3561,5.3646,5.3662,5.3614,5.3761,5.371,5.3722,5.3748,5.3764,5.3776,5.3771,5.3563,0,0,0,0,0,5.3331,5.3387,5.3413,5.3497,5.3514,5.3525,5.3555,5.355,5.3584,5.3597,5.3616,5.3649,5.3699,5.3732,5.3779,5.3878,5.3885,5.3923,5.3935,5.3946,5.3956,5.4007,5.4024,5.3844,5.3844,5.3844,0,0,5.338,5.3405,5.3441,5.3508,5.3534,5.359,5.3537,5.3599,5.364,5.3606,5.3685,5.3699,5.3735,5.3825,5.3866,5.3841,5.4007,5.3956,5.3964,5.3968,5.4017,5.4034,5.4049,5.3849,5.3848,5.3847,0,0,5.3497,5.3523,5.3595,5.3621,5.366,5.3666,5.3683,5.3716,5.3725,5.3803,5.3779,5.3826,5.3913,5.3939,5.3964,5.4089,5.4067,5.4104,5.417,5.422,5.4234,5.4247,5.429,5.4306,5.4114,5.4114,5.4114,0,5.3552,5.3638,5.3633,5.3697,5.3727,5.3699,5.3771,5.3796,5.3848,5.3868,5.3839,5.3947,5.3969,5.4064,5.4094,5.4115,5.4133,5.41,5.4233,5.4245,5.4257,5.4298,5.4315,5.4118,5.4118,5.4117,5.4117,0,5.3703,5.3762,5.3815,5.3867,5.3902,5.397,5.3974,5.4009,5.4,5.4009,5.4087,5.4113,5.4164,5.4186,5.4178,5.4279,5.4262,5.4234,5.4182,5.4278,5.4317,5.4333,5.4124,5.4123,5.4122,5.412,0,0,5.3858,5.3905,5.3925,5.3947,5.3987,5.4032,5.4096,5.4147,5.4178,5.4214,5.4267,5.434,5.4313,5.4341,5.4335,5.4379,5.4474,5.4344,5.4345,5.4367,5.4586,5.4608,5.4626,5.446,5.4463,5.4466,5.4583,0,5.3978,5.4093,5.409,5.4196,5.4249,5.4223,5.4279,5.4308,5.4317,5.4362,5.4371,5.4423,5.4384,5.44,5.4443,5.4454,5.4518,5.4445,5.4508,5.4511,5.45,5.4647,5.467,5.478,5.4598,5.4601,5.4602,0,5.4133,5.4175,5.4287,5.4317,5.4339,5.439,5.4435,5.4479,5.4511,5.4514,5.4545,5.4531,5.4594,5.4541,5.4628,5.4578,5.4603,5.4612,5.4616,5.4622,5.4563,5.4656,5.4815,5.4831,5.4626,5.4624,5.4623,0,5.4234,5.4318,5.4395,5.4415,5.4453,5.4489,5.4506,5.4534,5.4564,5.4603,5.4622,5.4668,5.4692,5.4727,5.4725,5.4687,5.4812,5.4759,5.4815,5.4816,5.4844,5.4842,5.5008,5.486,5.486,5.486,5.4859,0,5.4368,5.4437,5.4441,5.4489,5.4565,5.4559,5.4634,5.4647,5.4672,5.472,5.4699,5.4745,5.474,5.4785,5.4783,5.4854,5.4866,5.4869,5.4868,5.4871,5.4871,5.4887,5.488,5.4864,5.4863,5.4862,5.4861,0,5.4494,5.45,5.4582,5.461,5.4619,5.4674,5.4697,5.4741,5.4747,5.4808,5.4822,5.4831,5.4883,5.4885,5.4944,5.4943,5.5029,5.502,5.5019,5.5017,5.5073,5.5068,5.5256,5.528,5.5117,5.5118,5.5119,0,5.458,5.4632,5.4666,5.4697,5.4716,5.4767,5.4797,5.4793,5.4825,5.4864,5.4903,5.4953,5.4993,5.5076,5.5087,5.5132,5.5123,5.5186,5.5129,5.513,5.5123,5.512,5.5124,5.5197,5.5199,5.52,5.5201,0,5.473,5.4729,5.4775,5.4821,5.4858,5.4893,5.4926,5.4953,5.4952,5.4988,5.5041,5.5072,5.5132,5.5182,5.5224,5.524,5.522,5.5219,5.5234,5.5238,5.5235,5.5237,5.5049,5.5215,5.5213,5.5212,5.5212,5.5211,5.4838,5.4883,5.4913,5.4964,5.4988,5.5019,5.5061,5.5072,5.5117,5.5166,5.516,5.5219,5.5246,5.5302,5.5321,5.5366,5.5344,5.5366,5.5372,5.5377,5.5383,5.5228,5.5373,5.5373,5.5373,5.5372,5.5372,0,5.4987,5.5004,5.5051,5.5098,5.5137,5.5115,5.515,5.5184,5.5236,5.5264,5.5303,5.5363,5.541,5.5424,5.5469,5.5502,5.5494,5.5514,5.5512,5.5515,5.54,5.5383,5.552,5.552,5.552,5.552,5.552,5.552,5.5069,5.5143,5.5146,5.5231,5.5248,5.5306,5.5327,5.5355,5.5377,5.5445,5.5484,5.5493,5.5515,5.5562,5.5603,5.5606,5.5623,5.5647,5.5646,5.5538,5.5524,5.5509,5.5492,5.5651,5.5651,5.5757,5.5758,5.5759]}]]